THA303 VHHH-ROAH

Flight info

Callsign THA303
Flight time 2h 2m
Altitude 37000
Route DALOL V631 ENVAR M750 KUDOS R595 MJC Y57 VELNO
Aircraft A346/H-SDE2E3FGHIJ3J4J5M1RWXY/LB1D1

Departure

Time 2026-05-07 14:20
Airport Hong Kong International Airport (VHHH)

Arrival

Time 2026-05-07 16:22
Airport Naha International Airport (ROAH)
Time Latitude Longitude Altitude Speed Heading
2026-05-07 14:01 22.31015 113.92522 42 ft 0 kts 115°
2026-05-07 14:05 22.31016 113.92519 42 ft 2 kts 120°
2026-05-07 14:06 22.31023 113.92506 42 ft 2 kts 112°
2026-05-07 14:06 22.31029 113.92490 42 ft 2 kts 113°
2026-05-07 14:06 22.31035 113.92475 42 ft 2 kts 116°
2026-05-07 14:06 22.31043 113.92462 42 ft 2 kts 141°
2026-05-07 14:07 22.31056 113.92454 42 ft 2 kts 163°
2026-05-07 14:07 22.31071 113.92451 42 ft 2 kts 183°
2026-05-07 14:07 22.31086 113.92454 42 ft 2 kts 204°
2026-05-07 14:07 22.31099 113.92462 42 ft 2 kts 208°
2026-05-07 14:08 22.31113 113.92470 42 ft 2 kts 206°
2026-05-07 14:08 22.31117 113.92473 42 ft 0 kts 205°
2026-05-07 14:10 22.31089 113.92458 42 ft 11 kts 205°
2026-05-07 14:10 22.31008 113.92416 42 ft 13 kts 206°
2026-05-07 14:10 22.30925 113.92373 42 ft 13 kts 206°
2026-05-07 14:11 22.30841 113.92332 42 ft 10 kts 191°
2026-05-07 14:11 22.30768 113.92342 42 ft 11 kts 168°
2026-05-07 14:11 22.30717 113.92310 42 ft 8 kts 248°
2026-05-07 14:11 22.30690 113.92242 42 ft 14 kts 247°
2026-05-07 14:12 22.30649 113.92121 42 ft 17 kts 251°
2026-05-07 14:12 22.30609 113.91996 42 ft 17 kts 251°
2026-05-07 14:12 22.30569 113.91872 42 ft 17 kts 251°
2026-05-07 14:12 22.30530 113.91752 42 ft 16 kts 251°
2026-05-07 14:13 22.30492 113.91634 42 ft 16 kts 251°
2026-05-07 14:13 22.30455 113.91518 42 ft 16 kts 251°
2026-05-07 14:13 22.30418 113.91403 42 ft 16 kts 251°
2026-05-07 14:13 22.30375 113.91270 42 ft 19 kts 251°
2026-05-07 14:14 22.30332 113.91137 42 ft 18 kts 251°
2026-05-07 14:14 22.30290 113.91008 42 ft 17 kts 251°
2026-05-07 14:14 22.30249 113.90881 42 ft 17 kts 251°
2026-05-07 14:14 22.30210 113.90758 42 ft 17 kts 251°
2026-05-07 14:15 22.30171 113.90637 42 ft 16 kts 251°
2026-05-07 14:15 22.30132 113.90519 42 ft 16 kts 250°
2026-05-07 14:15 22.30096 113.90407 42 ft 13 kts 251°
2026-05-07 14:15 22.30065 113.90308 42 ft 13 kts 251°
2026-05-07 14:16 22.30032 113.90208 42 ft 14 kts 251°
2026-05-07 14:16 22.30000 113.90108 42 ft 14 kts 251°
2026-05-07 14:16 22.29968 113.90009 42 ft 14 kts 251°
2026-05-07 14:16 22.29935 113.89907 42 ft 14 kts 251°
2026-05-07 14:17 22.29899 113.89847 42 ft 6 kts 192°
2026-05-07 14:17 22.29846 113.89853 42 ft 8 kts 166°
2026-05-07 14:17 22.29798 113.89869 42 ft 0 kts 162°
2026-05-07 14:18 22.29776 113.89876 42 ft 8 kts 161°
2026-05-07 14:19 22.29692 113.89909 42 ft 10 kts 154°
2026-05-07 14:19 22.29679 113.89966 42 ft 9 kts 79°
2026-05-07 14:19 22.29712 113.90078 42 ft 39 kts 71°
2026-05-07 14:19 22.29902 113.90669 42 ft 125 kts 71°
2026-05-07 14:20 22.30266 113.91794 241 ft 174 kts 72°
2026-05-07 14:20 22.30666 113.93041 1074 ft 181 kts 71°
2026-05-07 14:20 22.31086 113.94339 1883 ft 195 kts 70°
2026-05-07 14:20 22.31552 113.95779 2648 ft 212 kts 70°
2026-05-07 14:21 22.32051 113.97330 3490 ft 229 kts 70°
2026-05-07 14:21 22.32587 113.98994 4455 ft 242 kts 70°
2026-05-07 14:21 22.33141 114.00719 5586 ft 247 kts 70°
2026-05-07 14:21 22.33706 114.02525 6713 ft 252 kts 75°
2026-05-07 14:22 22.33814 114.04409 7722 ft 260 kts 98°
2026-05-07 14:22 22.33176 114.06277 8714 ft 267 kts 123°
2026-05-07 14:22 22.31872 114.07735 9682 ft 274 kts 146°
2026-05-07 14:22 22.30140 114.08608 10649 ft 278 kts 167°
2026-05-07 14:23 22.28208 114.08823 11599 ft 283 kts 181°
2026-05-07 14:23 22.26197 114.08782 12274 ft 299 kts 183°
2026-05-07 14:23 22.24066 114.08713 12861 ft 318 kts 182°
2026-05-07 14:23 22.21799 114.08660 13431 ft 338 kts 182°
2026-05-07 14:24 22.19390 114.08682 13973 ft 358 kts 173°
2026-05-07 14:24 22.16980 114.09472 14438 ft 379 kts 151°
2026-05-07 14:24 22.14891 114.11298 14894 ft 399 kts 128°
2026-05-07 14:24 22.13465 114.13923 15525 ft 413 kts 115°
2026-05-07 14:25 22.12185 114.16756 16493 ft 418 kts 115°
2026-05-07 14:25 22.11324 114.18618 17121 ft 422 kts 116°
2026-05-07 14:25 22.09524 114.22433 18330 ft 429 kts 117°
2026-05-07 14:25 22.07907 114.25157 19186 ft 435 kts 127°
2026-05-07 14:26 22.05854 114.27590 20032 ft 441 kts 137°
2026-05-07 14:26 22.03477 114.29655 20849 ft 446 kts 143°
2026-05-07 14:26 22.00939 114.31633 21644 ft 451 kts 144°
2026-05-07 14:26 21.98382 114.33599 22406 ft 456 kts 143°
2026-05-07 14:27 21.95831 114.35579 23144 ft 460 kts 143°
2026-05-07 14:27 21.93253 114.37598 23864 ft 465 kts 143°
2026-05-07 14:27 21.90608 114.39678 24582 ft 469 kts 143°
2026-05-07 14:27 21.88003 114.41780 25255 ft 473 kts 138°
2026-05-07 14:28 21.85745 114.44343 25895 ft 476 kts 125°
2026-05-07 14:28 21.84064 114.47389 26532 ft 477 kts 112°
2026-05-07 14:28 21.82984 114.50769 27161 ft 479 kts 104°
2026-05-07 14:28 21.82119 114.54176 27940 ft 478 kts 103°
2026-05-07 14:29 21.81267 114.57634 28829 ft 474 kts 103°
2026-05-07 14:29 21.80423 114.61029 29650 ft 471 kts 103°
2026-05-07 14:29 21.79572 114.64394 30381 ft 468 kts 103°
2026-05-07 14:29 21.78717 114.67730 31049 ft 467 kts 104°
2026-05-07 14:30 21.77849 114.71102 31685 ft 465 kts 104°
2026-05-07 14:30 21.76984 114.74445 32288 ft 463 kts 104°
2026-05-07 14:30 21.76138 114.77792 32864 ft 461 kts 102°
2026-05-07 14:30 21.75444 114.81121 33402 ft 459 kts 99°
2026-05-07 14:31 21.74914 114.84493 33913 ft 456 kts 96°
2026-05-07 14:31 21.74555 114.87876 34393 ft 454 kts 93°
2026-05-07 14:31 21.74368 114.91243 34834 ft 452 kts 90°
2026-05-07 14:31 21.74331 114.94652 35247 ft 451 kts 89°
2026-05-07 14:32 21.74334 114.97983 35628 ft 450 kts 88°
2026-05-07 14:32 21.74340 115.01352 36015 ft 449 kts 88°
2026-05-07 14:32 21.74344 115.04662 36396 ft 447 kts 89°
2026-05-07 14:32 21.74347 115.08005 36752 ft 445 kts 89°
2026-05-07 14:33 21.74347 115.11342 36926 ft 448 kts 89°
2026-05-07 14:33 21.74342 115.18140 36936 ft 461 kts 89°
2026-05-07 14:34 21.74331 115.25082 36937 ft 471 kts 89°
2026-05-07 14:34 21.74315 115.32173 36938 ft 480 kts 89°
2026-05-07 14:35 21.74296 115.39393 36930 ft 475 kts 89°
2026-05-07 14:35 21.74274 115.46531 36936 ft 481 kts 89°
2026-05-07 14:36 21.74250 115.53769 36936 ft 482 kts 89°
2026-05-07 14:36 21.74225 115.60976 36936 ft 482 kts 89°
2026-05-07 14:37 21.74198 115.68152 36937 ft 482 kts 90°
2026-05-07 14:37 21.74154 115.78976 36936 ft 482 kts 90°
2026-05-07 14:38 21.74119 115.86137 36936 ft 482 kts 90°
2026-05-07 14:38 21.74081 115.93359 36936 ft 482 kts 90°
2026-05-07 14:39 21.74039 116.00548 36936 ft 482 kts 90°
2026-05-07 14:39 21.73995 116.07730 36936 ft 482 kts 90°
2026-05-07 14:40 21.73947 116.15019 36936 ft 482 kts 90°
2026-05-07 14:40 21.73897 116.22182 36936 ft 482 kts 90°
2026-05-07 14:41 21.73843 116.29398 36936 ft 482 kts 90°
2026-05-07 14:41 21.73786 116.36602 36936 ft 482 kts 90°
2026-05-07 14:42 21.73727 116.43762 36936 ft 482 kts 90°
2026-05-07 14:42 21.73663 116.50976 36936 ft 482 kts 90°
2026-05-07 14:43 21.73597 116.58205 36936 ft 482 kts 90°
2026-05-07 14:43 21.73527 116.65421 36936 ft 482 kts 90°
2026-05-07 14:44 21.73766 116.72573 36937 ft 482 kts 84°
2026-05-07 14:44 21.74737 116.79695 36937 ft 481 kts 78°
2026-05-07 14:45 21.76437 116.86647 36937 ft 481 kts 72°
2026-05-07 14:45 21.78780 116.93443 36937 ft 481 kts 69°
2026-05-07 14:46 21.81223 117.00143 36936 ft 481 kts 70°
2026-05-07 14:46 21.83653 117.06838 36935 ft 485 kts 70°
2026-05-07 14:47 21.86090 117.13590 36935 ft 489 kts 70°
2026-05-07 14:47 21.88548 117.20423 36936 ft 490 kts 70°
2026-05-07 14:48 21.91009 117.27266 36936 ft 490 kts 70°
2026-05-07 14:48 21.93455 117.34073 36936 ft 490 kts 70°
2026-05-07 14:49 21.95928 117.40965 36936 ft 490 kts 70°
2026-05-07 14:49 21.98493 117.47787 36936 ft 491 kts 67°
2026-05-07 14:50 22.01612 117.54298 36936 ft 493 kts 61°
2026-05-07 14:50 22.05204 117.60665 36936 ft 493 kts 60°
2026-05-07 14:51 22.08830 117.67025 36937 ft 493 kts 60°
2026-05-07 14:51 22.12410 117.73328 36936 ft 493 kts 60°
2026-05-07 14:52 22.15997 117.79627 36936 ft 493 kts 60°
2026-05-07 14:52 22.19553 117.85905 36936 ft 493 kts 60°
2026-05-07 14:53 22.23113 117.92212 36938 ft 493 kts 60°
2026-05-07 14:53 22.26669 117.98521 36943 ft 493 kts 60°
2026-05-07 14:54 22.30281 118.04808 36950 ft 493 kts 59°
2026-05-07 14:54 22.33989 118.11129 36956 ft 494 kts 59°
2026-05-07 14:55 22.37632 118.17373 36960 ft 494 kts 59°
2026-05-07 14:55 22.41280 118.23665 36961 ft 494 kts 60°
2026-05-07 14:56 22.44842 118.29945 36961 ft 494 kts 60°
2026-05-07 14:56 22.48425 118.36288 36961 ft 494 kts 60°
2026-05-07 14:57 22.52004 118.42628 36961 ft 494 kts 60°
2026-05-07 14:57 22.55568 118.48945 36961 ft 494 kts 60°
2026-05-07 14:58 22.59163 118.55279 36961 ft 494 kts 60°
2026-05-07 14:58 22.62766 118.61579 36961 ft 494 kts 60°
2026-05-07 14:59 22.66407 118.67974 36961 ft 494 kts 60°
2026-05-07 14:59 22.69978 118.74281 36961 ft 494 kts 60°
2026-05-07 15:00 22.73580 118.80640 36961 ft 494 kts 60°
2026-05-07 15:00 22.77159 118.86958 36961 ft 494 kts 60°
2026-05-07 15:01 22.80752 118.93305 36961 ft 494 kts 60°
2026-05-07 15:01 22.84313 118.99603 36961 ft 494 kts 60°
2026-05-07 15:02 22.87889 119.05933 36961 ft 494 kts 60°
2026-05-07 15:02 22.91498 119.12327 36961 ft 495 kts 60°
2026-05-07 15:03 22.95094 119.18707 36960 ft 496 kts 60°
2026-05-07 15:03 22.98683 119.25085 36960 ft 498 kts 60°
2026-05-07 15:04 23.02296 119.31513 36961 ft 501 kts 60°
2026-05-07 15:04 23.05930 119.37989 36962 ft 502 kts 60°
2026-05-07 15:05 23.09549 119.44446 36962 ft 503 kts 60°
2026-05-07 15:05 23.13195 119.50919 36962 ft 503 kts 60°
2026-05-07 15:06 23.16814 119.57368 36963 ft 503 kts 60°
2026-05-07 15:06 23.20450 119.63862 36963 ft 503 kts 60°
2026-05-07 15:07 23.24070 119.70354 36963 ft 502 kts 60°
2026-05-07 15:07 23.27693 119.76879 36963 ft 502 kts 60°
2026-05-07 15:08 23.31308 119.83379 36963 ft 502 kts 60°
2026-05-07 15:08 23.35149 119.89690 36964 ft 504 kts 55°
2026-05-07 15:09 23.39617 119.95596 36963 ft 505 kts 49°
2026-05-07 15:09 23.44603 120.00999 36963 ft 506 kts 45°
2026-05-07 15:10 23.49744 120.06267 36964 ft 506 kts 45°
2026-05-07 15:10 23.54876 120.11536 36969 ft 506 kts 45°
2026-05-07 15:11 23.59984 120.16803 36971 ft 506 kts 45°
2026-05-07 15:11 23.65104 120.22092 36971 ft 506 kts 45°
2026-05-07 15:12 23.70207 120.27371 36968 ft 506 kts 45°
2026-05-07 15:12 23.75321 120.32669 36971 ft 506 kts 45°
2026-05-07 15:13 23.80425 120.37964 36978 ft 506 kts 45°
2026-05-07 15:13 23.85524 120.43262 36985 ft 506 kts 45°
2026-05-07 15:14 23.90638 120.48579 36988 ft 506 kts 45°
2026-05-07 15:14 23.95741 120.53931 36989 ft 506 kts 45°
2026-05-07 15:15 24.00804 120.59273 36989 ft 506 kts 45°
2026-05-07 15:15 24.05883 120.64639 36989 ft 506 kts 45°
2026-05-07 15:16 24.10959 120.70028 36988 ft 506 kts 45°
2026-05-07 15:16 24.16023 120.75378 36989 ft 506 kts 45°
2026-05-07 15:17 24.21057 120.80701 36989 ft 506 kts 45°
2026-05-07 15:17 24.26099 120.86050 36989 ft 506 kts 45°
2026-05-07 15:18 24.31151 120.91420 36989 ft 506 kts 45°
2026-05-07 15:18 24.36207 120.96803 36989 ft 506 kts 45°
2026-05-07 15:19 24.41153 121.02229 36989 ft 503 kts 49°
2026-05-07 15:19 24.45670 121.08110 36987 ft 500 kts 53°
2026-05-07 15:20 24.49975 121.14056 36980 ft 498 kts 53°
2026-05-07 15:20 24.54255 121.19983 36972 ft 497 kts 52°
2026-05-07 15:21 24.58572 121.25952 36966 ft 496 kts 52°
2026-05-07 15:21 24.62873 121.31903 36963 ft 496 kts 52°
2026-05-07 15:22 24.67166 121.37848 36963 ft 496 kts 52°
2026-05-07 15:22 24.71467 121.43813 36963 ft 496 kts 52°
2026-05-07 15:23 24.75731 121.49735 36963 ft 496 kts 52°
2026-05-07 15:23 24.80063 121.55759 36963 ft 496 kts 52°
2026-05-07 15:24 24.84328 121.61703 36963 ft 496 kts 52°
2026-05-07 15:24 24.88610 121.67682 36963 ft 496 kts 53°
2026-05-07 15:25 24.93025 121.73473 36963 ft 497 kts 50°
2026-05-07 15:25 24.97569 121.79244 36963 ft 497 kts 50°
2026-05-07 15:26 25.02103 121.85012 36962 ft 499 kts 50°
2026-05-07 15:26 25.06603 121.90874 36959 ft 501 kts 55°
2026-05-07 15:27 25.10035 121.97533 36960 ft 501 kts 69°
2026-05-07 15:27 25.11892 122.04890 36964 ft 499 kts 83°
2026-05-07 15:28 25.12075 122.12493 36967 ft 497 kts 96°
2026-05-07 15:28 25.11418 122.20039 36963 ft 496 kts 97°
2026-05-07 15:29 25.10740 122.27641 36963 ft 496 kts 97°
2026-05-07 15:29 25.10048 122.35168 36963 ft 495 kts 97°
2026-05-07 15:30 25.09326 122.42704 36963 ft 495 kts 97°
2026-05-07 15:30 25.08602 122.50224 36963 ft 494 kts 97°
2026-05-07 15:31 25.07872 122.57757 36963 ft 494 kts 97°
2026-05-07 15:31 25.07139 122.65270 36963 ft 493 kts 98°
2026-05-07 15:32 25.06404 122.72779 36963 ft 493 kts 98°
2026-05-07 15:32 25.05668 122.80235 36963 ft 492 kts 98°
2026-05-07 15:33 25.04920 122.87747 36963 ft 492 kts 98°
2026-05-07 15:33 25.04168 122.95219 36963 ft 490 kts 97°
2026-05-07 15:34 25.03422 123.02666 36963 ft 487 kts 97°
2026-05-07 15:34 25.02687 123.10022 36963 ft 485 kts 97°
2026-05-07 15:35 25.01942 123.17414 36963 ft 484 kts 97°
2026-05-07 15:35 25.01209 123.24755 36963 ft 484 kts 96°
2026-05-07 15:36 25.00469 123.32106 36963 ft 483 kts 96°
2026-05-07 15:36 24.99715 123.39497 36963 ft 483 kts 96°
2026-05-07 15:37 24.98963 123.46807 36963 ft 483 kts 96°
2026-05-07 15:37 24.98205 123.54129 36963 ft 482 kts 96°
2026-05-07 15:38 24.97441 123.61474 36963 ft 482 kts 96°
2026-05-07 15:38 24.96672 123.68832 36963 ft 483 kts 96°
2026-05-07 15:39 24.95902 123.76166 36963 ft 483 kts 96°
2026-05-07 15:39 24.95123 123.83536 36963 ft 483 kts 96°
2026-05-07 15:40 24.94343 123.90838 36963 ft 483 kts 96°
2026-05-07 15:40 24.93553 123.98192 36963 ft 483 kts 96°
2026-05-07 15:41 24.92738 124.05553 36963 ft 483 kts 96°
2026-05-07 15:41 24.91885 124.12890 36963 ft 483 kts 96°
2026-05-07 15:42 24.91027 124.20200 36967 ft 483 kts 96°
2026-05-07 15:42 24.90160 124.27545 36973 ft 483 kts 96°
2026-05-07 15:43 24.89273 124.34866 36980 ft 483 kts 97°
2026-05-07 15:43 24.88379 124.42178 36985 ft 483 kts 97°
2026-05-07 15:44 24.87501 124.49465 36988 ft 483 kts 96°
2026-05-07 15:44 24.86618 124.56817 36989 ft 483 kts 96°
2026-05-07 15:45 24.85739 124.64120 36989 ft 483 kts 96°
2026-05-07 15:45 24.84860 124.71416 36989 ft 483 kts 97°
2026-05-07 15:46 24.83524 124.82425 36990 ft 483 kts 97°
2026-05-07 15:47 24.82640 124.89693 36990 ft 481 kts 97°
2026-05-07 15:47 24.81754 124.96955 36989 ft 480 kts 98°
2026-05-07 15:48 24.80856 125.04261 36989 ft 480 kts 98°
2026-05-07 15:48 24.79957 125.11492 36989 ft 480 kts 98°
2026-05-07 15:49 24.79124 125.18763 36988 ft 480 kts 94°
2026-05-07 15:49 24.79330 125.26102 36990 ft 481 kts 83°
2026-05-07 15:50 24.80870 125.33209 36990 ft 483 kts 71°
2026-05-07 15:50 24.83712 125.39893 36990 ft 485 kts 60°
2026-05-07 15:51 24.87272 125.46211 36989 ft 486 kts 59°
2026-05-07 15:51 24.90875 125.52509 36989 ft 486 kts 59°
2026-05-07 15:52 24.94465 125.58827 36989 ft 486 kts 59°
2026-05-07 15:52 24.98009 125.65096 36988 ft 487 kts 59°
2026-05-07 15:53 25.01591 125.71475 36988 ft 493 kts 59°
2026-05-07 15:53 25.05220 125.77948 36988 ft 497 kts 59°
2026-05-07 15:54 25.08812 125.84347 36388 ft 491 kts 59°
2026-05-07 15:54 25.10643 125.87608 35607 ft 495 kts 58°
2026-05-07 15:54 25.12498 125.90887 35151 ft 501 kts 58°
2026-05-07 15:54 25.14365 125.94185 34998 ft 501 kts 58°
2026-05-07 15:55 25.16225 125.97479 34991 ft 502 kts 58°
2026-05-07 15:55 25.19879 126.03982 34990 ft 502 kts 58°
2026-05-07 15:56 25.23548 126.10537 34972 ft 500 kts 58°
2026-05-07 15:56 25.25329 126.13727 34635 ft 495 kts 58°
2026-05-07 15:56 25.27131 126.16955 33704 ft 496 kts 58°
2026-05-07 15:56 25.28954 126.20225 32415 ft 503 kts 58°
2026-05-07 15:57 25.30815 126.23563 31042 ft 509 kts 58°
2026-05-07 15:57 25.32669 126.26891 29836 ft 513 kts 59°
2026-05-07 15:57 25.34545 126.30263 28870 ft 509 kts 59°
2026-05-07 15:57 25.36387 126.33576 28442 ft 494 kts 59°
2026-05-07 15:58 25.38159 126.36770 28195 ft 479 kts 59°
2026-05-07 15:58 25.39862 126.39842 27965 ft 465 kts 59°
2026-05-07 15:58 25.41518 126.42836 27739 ft 451 kts 59°
2026-05-07 15:58 25.43104 126.45705 27310 ft 429 kts 59°
2026-05-07 15:59 25.44628 126.48462 26777 ft 411 kts 59°
2026-05-07 15:59 25.46110 126.51144 25995 ft 402 kts 59°
2026-05-07 15:59 25.47551 126.53749 25100 ft 397 kts 59°
2026-05-07 15:59 25.48976 126.56326 24207 ft 391 kts 59°
2026-05-07 16:00 25.50382 126.58871 23330 ft 386 kts 60°
2026-05-07 16:00 25.51752 126.61357 22470 ft 380 kts 60°
2026-05-07 16:00 25.53102 126.63811 21616 ft 374 kts 60°
2026-05-07 16:00 25.54443 126.66255 20928 ft 363 kts 60°
2026-05-07 16:01 25.55720 126.68594 20524 ft 346 kts 61°
2026-05-07 16:01 25.56937 126.70825 19956 ft 336 kts 61°
2026-05-07 16:01 25.58145 126.73038 19232 ft 332 kts 61°
2026-05-07 16:01 25.59333 126.75214 18502 ft 328 kts 61°
2026-05-07 16:02 25.60492 126.77336 17799 ft 324 kts 61°
2026-05-07 16:02 25.61651 126.79457 17092 ft 319 kts 61°
2026-05-07 16:02 25.62800 126.81560 16386 ft 315 kts 61°
2026-05-07 16:02 25.63943 126.83652 15679 ft 311 kts 61°
2026-05-07 16:03 25.65054 126.85689 15167 ft 310 kts 61°
2026-05-07 16:03 25.66183 126.87757 14617 ft 313 kts 61°
2026-05-07 16:03 25.67321 126.89843 14116 ft 313 kts 61°
2026-05-07 16:03 25.68455 126.91917 13705 ft 311 kts 61°
2026-05-07 16:04 25.69597 126.94006 13293 ft 308 kts 60°
2026-05-07 16:04 25.70694 126.96011 12888 ft 305 kts 60°
2026-05-07 16:04 25.71801 126.98038 12381 ft 307 kts 60°
2026-05-07 16:04 25.72908 127.00070 11589 ft 317 kts 60°
2026-05-07 16:05 25.74054 127.02174 10971 ft 320 kts 60°
2026-05-07 16:05 25.75199 127.04275 10509 ft 318 kts 60°
2026-05-07 16:05 25.76344 127.06376 10044 ft 316 kts 60°
2026-05-07 16:05 25.77468 127.08441 9575 ft 314 kts 60°
2026-05-07 16:06 25.78601 127.10525 9101 ft 313 kts 60°
2026-05-07 16:06 25.79730 127.12602 8629 ft 311 kts 60°
2026-05-07 16:06 25.80829 127.14627 8188 ft 309 kts 60°
2026-05-07 16:06 25.81940 127.16676 8001 ft 309 kts 60°
2026-05-07 16:07 25.83041 127.18707 7996 ft 309 kts 60°
2026-05-07 16:07 25.84155 127.20761 7996 ft 316 kts 60°
2026-05-07 16:07 25.85353 127.22977 7992 ft 341 kts 60°
2026-05-07 16:07 25.86584 127.25248 7990 ft 343 kts 60°
2026-05-07 16:08 25.87813 127.27513 7991 ft 343 kts 60°
2026-05-07 16:08 25.89208 127.29667 7989 ft 345 kts 49°
2026-05-07 16:08 25.91006 127.31412 7992 ft 348 kts 36°
2026-05-07 16:08 25.93129 127.32707 7996 ft 349 kts 27°
2026-05-07 16:09 25.95345 127.33827 7992 ft 350 kts 26°
2026-05-07 16:09 25.97566 127.34923 7942 ft 346 kts 26°
2026-05-07 16:09 25.99739 127.35998 7454 ft 343 kts 26°
2026-05-07 16:09 26.01947 127.37099 7083 ft 345 kts 26°
2026-05-07 16:10 26.04048 127.38154 6998 ft 345 kts 26°
2026-05-07 16:10 26.06190 127.39232 6993 ft 345 kts 26°
2026-05-07 16:10 26.08378 127.40334 6992 ft 345 kts 26°
2026-05-07 16:10 26.10582 127.41447 6991 ft 345 kts 26°
2026-05-07 16:11 26.12764 127.42545 6992 ft 345 kts 26°
2026-05-07 16:11 26.14948 127.43644 6991 ft 344 kts 26°
2026-05-07 16:11 26.17037 127.44697 6822 ft 320 kts 26°
2026-05-07 16:11 26.19006 127.45691 6338 ft 303 kts 26°
2026-05-07 16:12 26.20869 127.46636 5971 ft 285 kts 26°
2026-05-07 16:12 26.22612 127.47523 5715 ft 271 kts 26°
2026-05-07 16:12 26.24317 127.48391 5544 ft 262 kts 26°
2026-05-07 16:12 26.25953 127.49225 5376 ft 253 kts 26°
2026-05-07 16:13 26.27519 127.50021 5212 ft 244 kts 26°
2026-05-07 16:13 26.29043 127.50795 5049 ft 236 kts 26°
2026-05-07 16:13 26.30532 127.51551 4886 ft 228 kts 26°
2026-05-07 16:13 26.31956 127.52275 4726 ft 219 kts 26°
2026-05-07 16:14 26.33367 127.52901 4509 ft 215 kts 18°
2026-05-07 16:14 26.34834 127.53241 4218 ft 215 kts
2026-05-07 16:14 26.36326 127.53328 3928 ft 215 kts
2026-05-07 16:14 26.37804 127.53352 3645 ft 213 kts
2026-05-07 16:15 26.39278 127.53369 3362 ft 212 kts
2026-05-07 16:15 26.40750 127.53389 3076 ft 211 kts
2026-05-07 16:15 26.42212 127.53492 2777 ft 209 kts 16°
2026-05-07 16:15 26.43514 127.54144 2467 ft 206 kts 39°
2026-05-07 16:16 26.44475 127.55298 2163 ft 204 kts 61°
2026-05-07 16:16 26.44988 127.56750 2023 ft 199 kts 75°
2026-05-07 16:16 26.45306 127.58219 2016 ft 193 kts 82°
2026-05-07 16:16 26.45250 127.59713 2016 ft 193 kts 108°
2026-05-07 16:17 26.44588 127.61015 2018 ft 195 kts 135°
2026-05-07 16:17 26.43438 127.61838 2021 ft 198 kts 158°
2026-05-07 16:17 26.42096 127.62224 2021 ft 199 kts 171°
2026-05-07 16:17 26.40720 127.62365 2022 ft 200 kts 176°
2026-05-07 16:18 26.39327 127.62425 2037 ft 200 kts 177°
2026-05-07 16:18 26.37917 127.62472 2023 ft 200 kts 177°
2026-05-07 16:18 26.36535 127.62526 2019 ft 200 kts 176°
2026-05-07 16:18 26.35130 127.62588 2017 ft 200 kts 176°
2026-05-07 16:19 26.33743 127.62655 2015 ft 199 kts 176°
2026-05-07 16:19 26.32363 127.62722 2012 ft 199 kts 176°
2026-05-07 16:19 26.30985 127.62788 2008 ft 198 kts 176°
2026-05-07 16:19 26.29612 127.62854 1842 ft 191 kts 176°
2026-05-07 16:20 26.28325 127.62915 1592 ft 177 kts 176°
2026-05-07 16:20 26.27139 127.62971 1351 ft 164 kts 175°
2026-05-07 16:20 26.26040 127.63023 1132 ft 153 kts 175°
2026-05-07 16:20 26.24976 127.63075 944 ft 153 kts 176°
2026-05-07 16:21 26.23903 127.63062 731 ft 153 kts 178°
2026-05-07 16:21 26.22857 127.63101 450 ft 150 kts 172°
2026-05-07 16:21 26.21801 127.63177 276 ft 151 kts 178°
2026-05-07 16:21 26.20755 127.63220 110 ft 151 kts 176°
2026-05-07 16:22 26.19762 127.63264 19 ft 129 kts 176°
2026-05-07 16:22 26.18976 127.63306 17 ft 99 kts 176°
2026-05-07 16:22 26.18367 127.63334 17 ft 77 kts 181°
2026-05-07 16:22 26.18015 127.63347 17 ft 20 kts 177°
2026-05-07 16:23 26.17904 127.63378 17 ft 10 kts 124°
2026-05-07 16:23 26.17890 127.63464 17 ft 12 kts 84°
2026-05-07 16:23 26.17951 127.63533 17 ft 15 kts
2026-05-07 16:23 26.18042 127.63535 17 ft 12 kts 358°
2026-05-07 16:24 26.18141 127.63531 17 ft 15 kts 357°
2026-05-07 16:24 26.18261 127.63525 17 ft 18 kts 357°
2026-05-07 16:24 26.18397 127.63519 17 ft 19 kts 357°
2026-05-07 16:24 26.18531 127.63512 17 ft 19 kts 358°
2026-05-07 16:25 26.18663 127.63507 17 ft 18 kts 357°
2026-05-07 16:25 26.18725 127.63503 17 ft 6 kts 357°
2026-05-07 16:25 26.18775 127.63501 17 ft 7 kts 357°
2026-05-07 16:25 26.18834 127.63498 17 ft 9 kts 357°
2026-05-07 16:26 26.18900 127.63494 17 ft 10 kts 357°
2026-05-07 16:26 26.18974 127.63490 17 ft 10 kts 357°
2026-05-07 16:26 26.19052 127.63487 17 ft 11 kts 357°
2026-05-07 16:26 26.19136 127.63483 17 ft 12 kts 358°
2026-05-07 16:27 26.19221 127.63481 17 ft 6 kts 356°
2026-05-07 16:27 26.19256 127.63479 17 ft 5 kts 356°
2026-05-07 16:27 26.19299 127.63477 17 ft 6 kts 357°
2026-05-07 16:27 26.19351 127.63474 17 ft 8 kts 357°
2026-05-07 16:28 26.19411 127.63471 18 ft 9 kts 357°
2026-05-07 16:28 26.19479 127.63468 18 ft 10 kts 357°
2026-05-07 16:28 26.19553 127.63464 18 ft 11 kts 357°
2026-05-07 16:28 26.19630 127.63461 18 ft 11 kts 358°
2026-05-07 16:29 26.19714 127.63457 18 ft 12 kts 357°
2026-05-07 16:29 26.19821 127.63452 18 ft 22 kts 357°
2026-05-07 16:29 26.19975 127.63446 18 ft 22 kts 358°
2026-05-07 16:29 26.20127 127.63439 18 ft 21 kts 357°
2026-05-07 16:30 26.20255 127.63432 18 ft 12 kts 357°
2026-05-07 16:30 26.20298 127.63465 18 ft 7 kts 76°
2026-05-07 16:30 26.20302 127.63552 18 ft 16 kts 87°
2026-05-07 16:30 26.20310 127.63713 18 ft 25 kts 86°
2026-05-07 16:31 26.20320 127.63944 18 ft 33 kts 88°
2026-05-07 16:31 26.20329 127.64204 27 ft 25 kts 88°
2026-05-07 16:31 26.20351 127.64288 34 ft 10 kts 35°
2026-05-07 16:31 26.20459 127.64313 32 ft 22 kts 359°
2026-05-07 16:32 26.20624 127.64329 31 ft 23 kts 11°
2026-05-07 16:32 26.20778 127.64366 31 ft 22 kts 12°
2026-05-07 16:32 26.20906 127.64430 31 ft 17 kts 62°
2026-05-07 16:32 26.20905 127.64513 31 ft 10 kts 95°
2026-05-07 16:33 26.20901 127.64600 31 ft 11 kts 89°
2026-05-07 16:33 26.20905 127.64703 32 ft 14 kts 85°
2026-05-07 16:33 26.20913 127.64811 34 ft 13 kts 85°
2026-05-07 16:33 26.20927 127.64876 35 ft 5 kts 88°
2026-05-07 16:34 26.20917 127.64915 36 ft 5 kts 111°
2026-05-07 16:34 26.20897 127.64954 37 ft 2 kts 120°
2026-05-07 16:34 26.20891 127.64966 37 ft 0 kts 120°